Location: ???????
(55.8930°N, 38.0586°E)
Time: 14:25:47
(UTC+00:00)

Cosmos 2278 Rocket - Pass Details

Date: 14 April 2024
Orbit: 839 x 846 km, 71.0° (Epoch: 24 May)

Event Time Altitude Azimuth Distance (km) Brightness Sun altitude
Rises 00:10:07 0° 324° (NW) 3,421 5.5 -16.5°
Reaches altitude 10° 00:12:35 10° 322° (NW) 2,482 4.8 -16.2°
Maximum altitude 00:18:14 67° 242° (WSW) 921 2.1 -15.7°
Drops below altitude 10° 00:23:50 10° 161° (SSE) 2,466 4.4 -15.1°
Sets 00:26:17 0° 159° (SSE) 3,397 5.1 -14.9°
